ARIANE 5 DEB (SYLDA) - Orbit

View from above orbital plane
View from above orbital plane
View from above satellite
View from above satellite

Ground track
Ground track

The orbit data is extracted from the following two-line orbital elements,

1 32770U 08018D   13142.08529777  .00030398  00000-0  62985-2 0   763
2 32770 001.4671 045.2822 6229866 100.6701 012.6100 03.70273680 53775
Epoch (UTC): 22 May 2013 02:02:49
Eccentricity: 0.6229866
inclination: 1.4671°
perigee height: 276 km
apogee height: 22266 km
right ascension of ascending node: 45.2822°
argument of perigee: 100.6701°
revolutions per day: 3.70273680
mean anomaly at epoch: 12.6100°
orbit number at epoch: 5377

The dashed part of the orbit path shows where the satellite is in the earth's shadow,  

Developed and maintained by Chris Peat, Heavens-Above GmbH. Please read the updated FAQ before sending e-mail. Imprint. DLR